Location: Newark
(7.0858°N, 171.3717°E)
Time: 04:38:04
(UTC+00:00)

Courier 1B Rocket - Pass Details

Date: 03 December 2020
Orbit: 920 x 1202 km, 28.2° (Epoch: 20 January)

Event Time Altitude Azimuth Distance (km) Brightness Sun altitude
Rises 10:11:27 0° 201° (SSW) 3,636 8.4 -54.6°
Enters shadow 10:11:38 - 200° (SSW) 3,592 8.3 -54.6°
Reaches altitude 10° 10:16:18 10° 169° (S) 2,753 - -55.6°
Maximum altitude 10:18:27 12° 150° (SSE) 2,669 - -56.1°
Drops below altitude 10° 10:20:37 10° 132° (SE) 2,818 - -56.6°
Sets 10:25:45 0° 101° (E) 3,852 - -57.7°
